EW5123 Weather Reports


time (UTC)temp
C
wind
direction
speed
KPH
gust
KPH
rain 1hr
cm
rain 24hr
cm
rain mn
cm
humidity
%
barometer
mb
20260904125931 15 295 0.0 0.0 0.00 0.00 0.00 41 983.7
20260904125432 15 295 0.0 0.0 0.00 0.00 0.00 40 983.5
20260904124931 16 295 0.0 0.0 0.00 0.00 0.00 39 983.5
20260904124432 16 322 0.0 0.0 0.00 0.00 0.00 37 983.4
20260904123931 17 322 0.0 4.8 0.00 0.00 0.00 36 983.4
20260904123432 17 323 0.0 6.4 0.00 0.00 0.00 35 983.3
20260904122932 17 244 0.0 6.4 0.00 0.00 0.00 34 983.2
20260904122432 17 252 0.0 4.8 0.00 0.00 0.00 35 983.2
20260904121932 17 229 0.0 3.2 0.00 0.00 0.00 34 983.2
20260904121432 18 180 0.0 6.4 0.00 0.00 0.00 33 983.2
20260904120931 18 195 0.0 6.4 0.00 0.00 0.00 33 983.0
20260904120437 18 279 3.2 11.3 0.00 0.00 0.00 33 982.8
20260904120432 18 206 1.6 11.3 0.00 0.00 0.00 33 983.1
20260904115436 18 179 3.2 9.7 0.00 0.00 0.00 33 982.7
20260904115432 18 212 3.2 9.7 0.00 0.00 0.00 34 983.0
20260904115038 18 203 3.2 9.7 0.00 0.00 0.00 32 982.8
20260904113931 18 200 1.6 8.0 0.00 0.00 0.00 33 982.8
20260904113429 18 242 0.0 4.8 0.00 0.00 0.00 33 982.8
20260904112929 18 232 1.6 6.4 0.00 0.00 0.00 33 982.8
20260904112430 18 224 1.6 8.0 0.00 0.00 0.00 32 982.8
20260904111930 18 171 1.6 8.0 0.00 0.00 0.00 33 983.0
20260904111429 18 208 0.0 4.8 0.00 0.00 0.00 33 983.0
20260904110929 18 231 0.0 4.8 0.00 0.00 0.00 33 982.8
20260904110434 18 259 0.0 3.2 0.00 0.00 0.00 33 982.8
20260904110429 18 293 0.0 4.8 0.00 0.00 0.00 32 982.8
20260904105430 18 198 0.0 3.2 0.00 0.00 0.00 32 982.8
20260904104930 18 216 0.0 1.6 0.00 0.00 0.00 32 982.7
20260904104431 19 281 0.0 3.2 0.00 0.00 0.00 32 982.8
20260904103928 19 233 0.0 4.8 0.00 0.00 0.00 31 982.6
20260904103428 19 235 3.2 9.7 0.00 0.00 0.00 31 982.6
20260904102928 19 200 4.8 9.7 0.00 0.00 0.00 31 982.5
20260904102428 19 184 3.2 8.0 0.00 0.00 0.00 31 982.4
20260904101927 19 199 3.2 9.7 0.00 0.00 0.00 31 982.1
20260904101428 19 215 3.2 9.7 0.00 0.00 0.00 31 982.1
20260904100927 19 206 3.2 9.7 0.00 0.00 0.00 31 982.1
20260904100427 19 224 3.2 9.7 0.00 0.00 0.00 31 982.0
20260904095926 20 203 3.2 6.4 0.00 0.00 0.00 31 982.0
20260904095426 20 199 1.6 8.0 0.00 0.00 0.00 31 982.0
20260904094925 20 219 1.6 8.0 0.00 0.00 0.00 31 982.1
20260904094424 20 245 3.2 6.4 0.00 0.00 0.00 32 982.0
20260904093924 20 187 3.2 6.4 0.00 0.00 0.00 31 982.0
20260904093429 20 218 1.6 9.7 0.00 0.00 0.00 31 981.9
20260904093423 20 195 1.6 6.4 0.00 0.00 0.00 31 981.9
20260904093029 20 225 3.2 9.7 0.00 0.00 0.00 30 981.9
20260904091923 20 205 4.8 12.9 0.00 0.00 0.00 30 981.9
20260904091422 21 174 6.4 14.5 0.00 0.00 0.00 30 981.8
20260904090925 20 205 4.8 11.3 0.00 0.00 0.00 32 981.7
20260904090921 20 198 4.8 14.5 0.00 0.00 0.00 31 981.8
20260904085922 20 189 3.2 6.4 0.00 0.00 0.00 32 981.7
20260904085421 20 202 1.6 6.4 0.00 0.00 0.00 32 981.7
20260904084920 20 204 3.2 6.4 0.00 0.00 0.00 33 981.5
20260904084419 20 219 3.2 9.7 0.00 0.00 0.00 33 981.5
20260904083924 20 213 1.6 6.4 0.00 0.00 0.00 36 981.5
20260904083919 20 200 4.8 9.7 0.00 0.00 0.00 34 981.5
20260904083419 20 172 3.2 8.0 0.00 0.00 0.00 34 981.5
20260904082424 18 199 0.0 3.2 0.00 0.00 0.00 42 981.7
20260904082419 18 196 0.0 4.8 0.00 0.00 0.00 39 981.5
20260904081419 18 203 0.0 0.0 0.00 0.00 0.00 44 981.7
20260904080920 18 203 0.0 0.0 0.00 0.00 0.00 44 981.5
20260904080419 20 203 0.0 0.0 0.00 0.00 0.00 43 981.7
20260904075919 20 203 1.6 8.0 0.00 0.00 0.00 41 981.7
20260904075417 20 199 3.2 8.0 0.00 0.00 0.00 42 981.5
20260904074917 20 192 4.8 8.0 0.00 0.00 0.00 43 981.5
20260904074417 20 188 4.8 11.3 0.00 0.00 0.00 44 981.5
20260904073917 20 200 4.8 11.3 0.00 0.00 0.00 44 981.5
20260904073417 20 176 4.8 12.9 0.00 0.00 0.00 44 981.7
20260904072922 20 210 4.8 12.9 0.00 0.00 0.00 44 981.7
20260904072918 20 205 4.8 12.9 0.00 0.00 0.00 44 981.7
20260904071921 20 200 3.2 11.3 0.00 0.00 0.00 44 981.7
20260904071917 20 198 4.8 11.3 0.00 0.00 0.00 44 981.8
20260904070917 20 142 1.6 8.0 0.00 0.00 0.00 44 981.7
20260904070415 21 184 3.2 12.9 0.00 0.00 0.00 43 981.9
20260904065915 21 190 6.4 12.9 0.00 0.00 0.00 42 981.9
20260904065415 21 214 6.4 14.5 0.00 0.00 0.00 42 982.0
20260904064916 21 189 8.0 17.7 0.00 0.00 0.00 42 982.0
20260904064415 21 191 8.0 17.7 0.00 0.00 0.00 42 982.0
20260904063915 21 205 6.4 16.1 0.00 0.00 0.00 42 981.9
20260904063415 21 194 6.4 16.1 0.00 0.00 0.00 42 981.9
20260904062915 21 162 8.0 16.1 0.00 0.00 0.00 41 981.9
20260904062413 21 215 6.4 16.1 0.00 0.00 0.00 41 981.9
20260904061913 21 134 6.4 12.9 0.00 0.00 0.00 41 981.9
20260904061411 21 163 6.4 17.7 0.00 0.00 0.00 41 981.9
20260904060411 21 213 8.0 17.7 0.00 0.00 0.00 40 981.9
20260904055909 21 198 8.0 16.1 0.00 0.00 0.00 40 981.9
20260904055407 22 146 8.0 20.9 0.00 0.00 0.00 40 982.0
20260904054908 22 191 8.0 20.9 0.00 0.00 0.00 39 981.9
20260904054408 22 195 8.0 20.9 0.00 0.00 0.00 39 982.0
20260904053908 22 141 8.0 20.9 0.00 0.00 0.00 39 982.0
20260904053408 22 154 8.0 19.3 0.00 0.00 0.00 39 982.0
20260904052908 22 102 8.0 16.1 0.00 0.00 0.00 39 982.0
20260904052408 22 201 6.4 16.1 0.00 0.00 0.00 39 982.1
20260904051907 22 188 8.0 16.1 0.00 0.00 0.00 39 982.1
20260904051408 22 176 9.7 17.7 0.00 0.00 0.00 39 982.1
20260904050908 22 191 9.7 19.3 0.00 0.00 0.00 39 982.1
20260904050408 22 140 9.7 19.3 0.00 0.00 0.00 38 982.1
20260904045910 22 156 8.0 17.7 0.00 0.00 0.00 38 982.1
20260904045906 22 177 8.0 17.7 0.00 0.00 0.00 38 982.1
20260904045511 22 158 9.7 19.3 0.00 0.00 0.00 38 982.1
20260904044405 22 198 8.0 19.3 0.00 0.00 0.00 37 982.2
20260904043905 22 166 4.8 14.5 0.00 0.00 0.00 37 982.4
20260904043404 21 188 3.2 14.5 0.00 0.00 0.00 37 982.4
20260904042910 20 251 0.0 1.6 0.00 0.00 0.00 34 982.6
20260904042904 21 174 1.6 12.9 0.00 0.00 0.00 36 982.5
20260904042404 20 200 0.0 1.6 0.00 0.00 0.00 35 982.6
20260904041408 21 188 0.0 0.0 0.00 0.00 0.00 32 982.6
20260904041404 20 224 0.0 1.6 0.00 0.00 0.00 33 982.6
20260904040403 21 188 0.0 0.0 0.00 0.00 0.00 31 982.6
20260904035908 22 188 0.0 0.0 0.00 0.00 0.00 30 982.5
20260904035904 21 188 0.0 0.0 0.00 0.00 0.00 30 982.5
20260904034904 22 188 0.0 0.0 0.00 0.00 0.00 29 982.4
20260904034403 22 188 0.0 4.8 0.00 0.00 0.00 28 982.4
20260904033904 23 216 1.6 9.7 0.00 0.00 0.00 28 982.2
20260904033404 23 203 4.8 9.7 0.00 0.00 0.00 27 982.1
20260904032904 23 215 3.2 9.7 0.00 0.00 0.00 28 982.0
20260904032403 23 209 3.2 8.0 0.00 0.00 0.00 28 981.9
20260904031904 23 192 3.2 8.0 0.00 0.00 0.00 28 981.8
20260904031403 23 188 3.2 11.3 0.00 0.00 0.00 28 981.8
20260904030904 23 174 4.8 12.9 0.00 0.00 0.00 28 981.7
20260904030408 22 186 3.2 11.3 0.00 0.00 0.00 28 981.7
20260904030403 23 189 4.8 12.9 0.00 0.00 0.00 28 981.8
20260904025403 23 188 4.8 9.7 0.00 0.00 0.00 28 981.7
20260904024908 23 155 4.8 12.9 0.00 0.00 0.00 27 981.4
20260904024904 23 143 4.8 12.9 0.00 0.00 0.00 28 981.5
20260904023903 23 169 6.4 12.9 0.00 0.00 0.00 27 981.4
20260904023404 23 195 4.8 11.3 0.00 0.00 0.00 27 981.3
20260904022903 23 161 4.8 11.3 0.00 0.00 0.00 27 981.3
20260904022403 23 87 4.8 9.7 0.00 0.00 0.00 27 981.2
20260904021904 23 158 3.2 9.7 0.00 0.00 0.00 27 981.2
20260904021408 23 197 3.2 9.7 0.00 0.00 0.00 27 981.1
20260904021403 23 167 3.2 8.0 0.00 0.00 0.00 27 981.1
20260904020403 23 158 3.2 9.7 0.00 0.00 0.00 26 981.1
20260904015903 24 127 3.2 9.7 0.00 0.00 0.00 26 981.1
20260904015409 25 212 1.6 11.3 0.00 0.00 0.00 25 980.8
20260904015403 24 115 3.2 9.7 0.00 0.00 0.00 25 980.9
20260904014403 25 168 3.2 11.3 0.00 0.00 0.00 25 980.8
20260904013907 25 164 3.2 9.7 0.00 0.00 0.00 24 980.7
20260904013903 25 181 1.6 6.4 0.00 0.00 0.00 25 980.8
20260904012904 25 158 4.8 9.7 0.00 0.00 0.00 24 980.7
20260904012402 25 198 4.8 8.0 0.00 0.00 0.00 24 980.6
20260904011904 26 169 4.8 9.7 0.00 0.00 0.00 24 980.6
20260904011408 26 162 3.2 8.0 0.00 0.00 0.00 24 980.6
20260904011403 26 212 3.2 9.7 0.00 0.00 0.00 24 980.6
20260904010901 26 186 4.8 8.0 0.00 0.00 0.00 23 980.6
20260904005905 27 196 4.8 17.7 0.00 0.00 0.00 22 980.6
20260904005901 27 157 4.8 11.3 0.00 0.00 0.00 23 980.6
20260904004901 28 120 6.4 17.7 0.00 0.00 0.00 21 980.6
20260904004401 28 136 4.8 12.9 0.00 0.00 0.00 21 980.6
20260904003859 28 168 4.8 19.3 0.00 0.00 0.00 21 980.6
20260904003359 29 195 8.0 19.3 0.00 0.00 0.00 20 980.6
20260904002859 29 167 6.4 17.7 0.00 0.00 0.00 20 980.6
20260904002400 29 165 6.4 20.9 0.00 0.00 0.00 20 980.6
20260904001859 29 138 6.4 20.9 0.00 0.00 0.00 21 980.6
20260904001404 30 182 4.8 17.7 0.00 0.00 0.00 20 980.7
20260904001400 30 223 6.4 17.7 0.00 0.00 0.00 20 980.6
20260904000359 30 151 8.0 17.7 0.00 0.00 0.00 20 980.6
20260903235859 30 113 8.0 19.3 0.00 0.00 0.00 19 980.6
20260903235358 30 193 8.0 19.3 0.00 0.00 0.00 20 980.7
20260903234902 30 186 8.0 16.1 0.00 0.00 0.00 18 980.7
20260903234858 30 205 8.0 17.7 0.00 0.00 0.00 18 980.7
20260903233857 31 207 8.0 17.7 0.00 0.00 0.00 18 980.7
20260903233357 31 172 8.0 17.7 0.00 0.00 0.00 18 980.7
20260903232858 31 155 4.8 14.5 0.00 0.00 0.00 18 980.6
20260903232357 31 167 4.8 12.9 0.00 0.00 0.00 16 980.7
20260903231857 31 200 6.4 19.3 0.00 0.00 0.00 15 980.6
20260903231401 31 160 9.7 20.9 0.00 0.00 0.00 14 980.6
20260903231357 31 219 9.7 20.9 0.00 0.00 0.00 14 980.7
20260903230356 31 200 6.4 19.3 0.00 0.00 0.00 13 980.6
20260903225857 31 148 8.0 19.3 0.00 0.00 0.00 13 980.7
20260903225357 31 210 9.7 19.3 0.00 0.00 0.00 13 980.8
20260903224857 31 243 9.7 25.7 0.00 0.00 0.00 13 980.8
20260903224357 31 204 11.3 25.7 0.00 0.00 0.00 13 980.8
20260903223858 31 220 9.7 19.3 0.00 0.00 0.00 13 980.8
20260903223357 31 210 6.4 19.3 0.00 0.00 0.00 14 980.8
20260903222857 31 228 4.8 17.7 0.00 0.00 0.00 14 980.9
20260903222357 31 205 4.8 17.7 0.00 0.00 0.00 14 981.1
20260903221857 30 224 4.8 22.5 0.00 0.00 0.00 16 980.9
20260903221357 30 230 6.4 22.5 0.00 0.00 0.00 16 981.1
20260903220857 31 207 4.8 16.1 0.00 0.00 0.00 16 981.3
20260903220355 30 235 8.0 20.9 0.00 0.00 0.00 15 981.3
20260903215858 30 200 9.7 24.1 0.00 0.00 0.00 15 981.3
20260903215854 31 206 8.0 24.1 0.00 0.00 0.00 16 981.4
20260903214857 30 226 8.0 20.9 0.00 0.00 0.00 16 981.4
20260903214853 31 172 8.0 20.9 0.00 0.00 0.00 16 981.3
20260903213853 30 212 9.7 24.1 0.00 0.00 0.00 16 981.4
20260903213352 31 214 8.0 24.1 0.00 0.00 0.00 16 981.4
20260903212851 31 223 8.0 17.7 0.00 0.00 0.00 18 981.4
20260903212348 30 149 6.4 17.7 0.00 0.00 0.00 18 981.4
20260903211852 30 207 6.4 16.1 0.00 0.00 0.00 18 981.5
20260903211848 30 210 9.7 20.9 0.00 0.00 0.00 16 981.5
20260903210851 31 192 4.8 19.3 0.00 0.00 0.00 17 981.7
20260903210847 31 196 8.0 20.9 0.00 0.00 0.00 17 981.7
20260903205847 30 224 6.4 19.3 0.00 0.00 0.00 18 981.8
20260903205348 30 188 8.0 19.3 0.00 0.00 0.00 19 981.9
20260903204849 30 214 8.0 17.7 0.00 0.00 0.00 18 982.0
20260903204845 30 216 8.0 19.3 0.00 0.00 0.00 19 981.9
20260903203843 30 207 8.0 22.5 0.00 0.00 0.00 17 982.1
20260903203343 30 205 4.8 22.5 0.00 0.00 0.00 18 982.1
20260903202840 30 105 6.4 20.9 0.00 0.00 0.00 18 982.1
20260903202341 30 257 9.7 20.9 0.00 0.00 0.00 18 982.2
20260903201841 30 164 9.7 20.9 0.00 0.00 0.00 18 982.1
20260903201345 30 217 3.2 12.9 0.00 0.00 0.00 20 982.0
20260903201341 30 235 6.4 20.9 0.00 0.00 0.00 19 982.1
20260903200345 30 321 4.8 16.1 0.00 0.00 0.00 19 982.4
20260903200341 30 153 3.2 14.5 0.00 0.00 0.00 19 982.1
20260903195840 30 303 4.8 14.5 0.00 0.00 0.00 19 982.2
20260903194841 30 253 4.8 16.1 0.00 0.00 0.00 18 982.4
20260903194341 30 198 4.8 14.5 0.00 0.00 0.00 19 982.4
20260903193841 29 207 4.8 16.1 0.00 0.00 0.00 19 982.5
20260903193340 29 242 4.8 22.5 0.00 0.00 0.00 19 982.6
20260903192840 29 274 6.4 22.5 0.00 0.00 0.00 19 982.6
20260903192340 29 283 8.0 20.9 0.00 0.00 0.00 18 982.7
20260903191840 29 200 8.0 22.5 0.00 0.00 0.00 19 982.7
20260903191340 29 210 6.4 22.5 0.00 0.00 0.00 19 982.8
20260903190840 28 131 6.4 16.1 0.00 0.00 0.00 20 982.7
20260903190341 29 185 6.4 17.7 0.00 0.00 0.00 19 983.1
20260903185840 28 232 6.4 17.7 0.00 0.00 0.00 20 983.1
20260903185340 28 173 9.7 20.9 0.00 0.00 0.00 20 983.2
20260903184841 29 206 9.7 20.9 0.00 0.00 0.00 20 983.3
20260903184341 28 119 6.4 16.1 0.00 0.00 0.00 20 983.2
20260903183841 28 195 9.7 20.9 0.00 0.00 0.00 22 983.3
20260903183344 28 204 9.7 22.5 0.00 0.00 0.00 21 983.4
20260903183340 28 191 11.3 22.5 0.00 0.00 0.00 20 983.4
20260903182341 28 202 6.4 19.3 0.00 0.00 0.00 21 983.4
20260903181841 28 196 4.8 14.5 0.00 0.00 0.00 23 983.5
20260903181345 27 165 6.4 17.7 0.00 0.00 0.00 23 983.9
20260903181341 27 171 3.2 14.5 0.00 0.00 0.00 22 983.7
20260903180839 28 304 6.4 17.7 0.00 0.00 0.00 23 983.7
20260903175839 28 192 4.8 16.1 0.00 0.00 0.00 23 984.0
20260903175336 27 277 4.8 16.1 0.00 0.00 0.00 22 984.0
20260903174837 27 186 4.8 16.1 0.00 0.00 0.00 22 984.0
20260903174337 27 275 3.2 16.1 0.00 0.00 0.00 23 984.0
20260903173837 28 202 1.6 11.3 0.00 0.00 0.00 24 984.0
20260903173335 27 148 1.6 11.3 0.00 0.00 0.00 25 984.1
20260903172838 26 239 6.4 16.1 0.00 0.00 0.00 24 984.3
20260903172834 27 140 3.2 12.9 0.00 0.00 0.00 24 984.0
20260903171831 26 257 4.8 16.1 0.00 0.00 0.00 24 984.3
20260903171330 26 216 1.6 12.9 0.00 0.00 0.00 25 984.3
20260903170830 26 231 3.2 12.9 0.00 0.00 0.00 26 984.3
20260903170330 26 305 3.2 9.7 0.00 0.00 0.00 26 984.4
20260903165830 26 321 3.2 19.3 0.00 0.00 0.00 25 984.3
20260903165330 26 244 4.8 19.3 0.00 0.00 0.00 25 984.4
20260903164830 26 253 4.8 14.5 0.00 0.00 0.00 25 984.4
20260903164330 26 210 4.8 22.5 0.00 0.00 0.00 25 984.4
20260903163831 26 217 4.8 22.5 0.00 0.00 0.00 25 984.4
20260903163330 25 190 4.8 14.5 0.00 0.00 0.00 27 984.3
20260903162830 25 217 3.2 16.1 0.00 0.00 0.00 26 984.3
20260903162330 25 291 6.4 16.1 0.00 0.00 0.00 27 984.3
20260903161830 25 236 6.4 16.1 0.00 0.00 0.00 27 984.3
20260903161330 25 213 4.8 16.1 0.00 0.00 0.00 28 984.3
20260903160834 25 225 8.0 14.5 0.00 0.00 0.00 29 984.3
20260903160830 25 221 6.4 16.1 0.00 0.00 0.00 30 984.4
20260903155830 25 190 8.0 17.7 0.00 0.00 0.00 29 984.4
20260903155336 25 202 9.7 19.3 0.00 0.00 0.00 30 984.4
20260903155331 24 174 9.7 19.3 0.00 0.00 0.00 30 984.4
20260903154331 25 162 8.0 16.1 0.00 0.00 0.00 30 984.3
20260903153830 24 221 8.0 16.1 0.00 0.00 0.00 31 984.4
20260903153329 24 212 8.0 16.1 0.00 0.00 0.00 31 984.4
20260903152828 23 219 8.0 16.1 0.00 0.00 0.00 31 984.4
20260903152328 23 229 8.0 17.7 0.00 0.00 0.00 32 984.4
20260903151828 23 161 8.0 17.7 0.00 0.00 0.00 32 984.4
20260903151333 23 220 8.0 16.1 0.00 0.00 0.00 32 984.4
20260903150829 23 214 8.0 16.1 0.00 0.00 0.00 33 984.5
20260903150328 23 202 8.0 17.7 0.00 0.00 0.00 33 984.6
20260903145828 22 205 8.0 17.7 0.00 0.00 0.00 33 984.6
20260903145330 22 231 4.8 16.1 0.00 0.00 0.00 33 984.6
20260903145326 22 246 4.8 16.1 0.00 0.00 0.00 35 984.5
20260903144326 22 188 6.4 17.7 0.00 0.00 0.00 35 984.5
20260903143826 21 198 4.8 17.7 0.00 0.00 0.00 36 984.5
20260903143330 21 199 3.2 9.7 0.00 0.00 0.00 38 984.5
20260903143326 21 212 3.2 11.3 0.00 0.00 0.00 37 984.6
20260903142326 21 221 1.6 9.7 0.00 0.00 0.00 38 984.6
20260903141825 20 175 1.6 9.7 0.00 0.00 0.00 38 984.5
20260903141326 20 173 3.2 9.7 0.00 0.00 0.00 39 984.5
20260903140826 20 157 1.6 6.4 0.00 0.00 0.00 39 984.5
20260903140326 20 202 1.6 6.4 0.00 0.00 0.00 39 984.5
20260903135826 19 195 1.6 8.0 0.00 0.00 0.00 40 984.4
20260903135326 19 200 3.2 8.0 0.00 0.00 0.00 40 984.4
20260903134826 19 198 1.6 6.4 0.00 0.00 0.00 41 984.5
20260903134329 18 195 0.0 4.8 0.00 0.00 0.00 41 984.4
20260903134325 18 195 1.6 4.8 0.00 0.00 0.00 41 984.4
20260903133326 18 226 0.0 4.8 0.00 0.00 0.00 42 984.3
20260903132831 17 203 0.0 3.2 0.00 0.00 0.00 43 984.1
20260903132826 18 214 1.6 4.8 0.00 0.00 0.00 42 984.3
20260903132326 17 217 0.0 3.2 0.00 0.00 0.00 43 984.3
20260903131933 17 246 0.0 1.6 0.00 0.00 0.00 43 984.0
20260903130826 17 206 0.0 1.6 0.00 0.00 0.00 44 984.0